This demonstration page uses our WeatherBlox Daily Observations layout. Learn more.

Left ArrowRight Arrow

Hourly Observations for February 28, 2022

Temp ( °F °C ) Dew Point ( °F °C ) Humidity (%) Winds ( mph kmh ) Pressure ( in mb ) Visibility ( mi km ) Precip ( " mm )
12:56 am 00:56 Clear 27 -2.8 6 -14.4 41 41 Calm 30.17 1022 10 16 0.00 0.00
1:56 am 01:56 Clear 25 -3.9 5 -15 42 42 NW 3 6 30.17 1022 10 16 0.00 0.00
2:56 am 02:56 Clear 26 -3.3 8 -13.3 46 46 NW 5 7 30.17 1022 10 16 0.00 0.00
3:56 am 03:56 Clear 26 -3.3 9 -12.8 48 48 Calm 30.16 1021 10 16 0.00 0.00
4:56 am 04:56 Clear 23 -5 9 -12.8 55 55 NW 8 13 30.17 1022 10 16 0.00 0.00
5:56 am 05:56 Clear 29 -1.7 15 -9.4 56 56 W 9 15 30.18 1022 10 16 0.00 0.00
6:56 am 06:56 Clear 32 0 17 -8.3 54 54 W 6 9 30.18 1022 10 16 0.00 0.00
7:56 am 07:56 Sunny 32 0 16 -8.9 52 52 W 5 7 30.20 1023 9 14 0.00 0.00
8:56 am 08:56 Sunny 37 2.8 18 -7.8 46 46 WNW 9 15 30.22 1023 10 16 0.00 0.00
9:56 am 09:56 Sunny 42 5.6 19 -7.2 40 40 NW 10 17 30.21 1023 10 16 0.00 0.00
10:56 am 10:56 Sunny 51 10.6 21 -6.1 31 31 NW 6 9 30.20 1023 10 16 0.00 0.00
11:56 am 11:56 Sunny 58 14.4 14 -10 18 18 VRB 3 6 30.18 1022 10 16 0.00 0.00
12:56 pm 12:56 Sunny 63 17.2 13 -10.6 14 14 NW 3 6 30.15 1021 10 16 0.00 0.00
1:56 pm 13:56 Sunny 65 18.3 11 -11.7 12 12 WSW 7 11 30.11 1020 10 16 0.00 0.00
2:56 pm 14:56 Sunny 66 18.9 12 -11.1 12 12 SSW 10 17 30.09 1019 10 16 0.00 0.00
3:56 pm 15:56 Sunny 66 18.9 9 -12.8 10 10 WSW 10 17 30.06 1018 10 16 0.00 0.00
4:56 pm 16:56 Sunny 66 18.9 9 -12.8 10 10 WSW 12 19 30.04 1017 10 16 0.00 0.00
5:56 pm 17:56 Sunny 62 16.7 12 -11.1 14 14 SW 10 17 30.04 1017 10 16 0.00 0.00
6:56 pm 18:56 Clear 53 11.7 9 -12.8 17 17 SSW 9 15 30.05 1018 10 16 0.00 0.00
7:56 pm 19:56 Clear 49 9.4 9 -12.8 20 20 SW 10 17 30.05 1018 10 16 0.00 0.00
8:56 pm 20:56 Clear 46 7.8 9 -12.8 22 22 SW 9 15 30.04 1017 10 16 0.00 0.00
9:56 pm 21:56 Clear 44 6.7 9 -12.8 24 24 SW 9 15 30.04 1017 10 16 0.00 0.00
10:56 pm 22:56 Clear 45 7.2 8 -13.3 22 22 SW 13 20 30.03 1017 10 16 0.00 0.00
11:56 pm 23:56 Clear 47 8.3 9 -12.8 21 21 WSW 12 19 30.01 1016 10 16 0.00 0.00

Powered by AerisWeather